Weather History for Fullerton, CA

Change the Weather History Date:

Wednesday, May 6, 2009

  Actual Average Record
Temperature  
Mean Temperature 71 °F 66 °F  
Max Temperature 84 °F 75 °F 93 °F (2004)
Min Temperature 58 °F 56 °F 53 °F (2007)
Degree Days  
Heating Degree Days 0 1  
Month to date heating degree days 1 11  
Since 1 July heating degree days 995 1205  
Cooling Degree Days 6 2  
Month to date cooling degree days 19 12  
Year to date cooling degree days 104 64  
Growing Degree Days 22 (Base 50)    
Moisture  
Dew Point 55 °F    
Average Humidity 61    
Maximum Humidity 84    
Minimum Humidity 37    
Precipitation  
Precipitation 0.00 in 0.01 in 0.45 in (2005)
Month to date precipitation T 0.09  
Year to date precipitation 5.38 9.40  
Since 1 July precipitation 10.01 13.63  
Snow  
Snow 0.00 in - - ()
Month to date snowfall 0.0  
Year to date snowfall 0.0  
Since 1 July snowfall 0.0  
Snow Depth 0.00 in    
Sea Level Pressure  
Sea Level Pressure 29.90 in    
Wind  
Wind Speed 3 mph (SSE)    
Max Wind Speed 12 mph    
Max Gust Speed 14 mph    
Visibility 10 miles    
Events      
T = Trace of Precipitation, MM = Missing Value Source: NWS Daily Summary

Daily Weather History Graph

Daily Weather History Graph

Search for Another Location

Airport:

Trip Planner

Search our weather history database for the weather conditions in past years. The results will help you decide how hot, cold, wet, or windy it might be!

Date:

Astronomy

May. 06, 2009 Rise Set
Actual Time 5:57 AM PDT 7:39 PM PDT
Civil Twilight 5:30 AM PDT 8:06 PM PDT
Nautical Twilight 4:58 AM PDT 8:39 PM PDT
Astronomical Twilight 4:24 AM PDT 9:13 PM PDT
Moon 5:38 PM PDT (5/6) 4:10 AM PDT (5/6)
Length of Visible Light 14h 35m
Length of Day
13h 41m
Waxing Gibbous, 94% of the Moon is Illuminated
May 6
Waxing Gibbous
May 8
Full
May 17
Last Quarter
May 24
New
May 30
First Quarter

Hourly Weather History & Observations

Time (PDT) Temp. Heat Index Dew Point Humidity Pressure Visibility Wind Dir Wind Speed Gust Speed Precip Events Conditions
12:53 AM 62.1 °F - 55.9 °F 80% 29.95 in 10.0 mi SSE 3.5 mph - N/A   Clear
1:53 AM 61.0 °F - 55.9 °F 83% 29.93 in 10.0 mi Calm Calm - N/A   Clear
2:53 AM 61.0 °F - 55.0 °F 81% 29.92 in 10.0 mi Calm Calm - N/A   Clear
3:53 AM 60.1 °F - 55.0 °F 83% 29.92 in 10.0 mi Calm Calm - N/A   Clear
4:53 AM 60.1 °F - 54.0 °F 80% 29.92 in 10.0 mi Calm Calm - N/A   Clear
5:53 AM 59.0 °F - 54.0 °F 83% 29.93 in 10.0 mi Calm Calm - N/A   Clear
6:53 AM 62.1 °F - 55.0 °F 78% 29.94 in 10.0 mi East 3.5 mph - N/A   Partly Cloudy
7:53 AM 64.0 °F - 55.9 °F 75% 29.95 in 10.0 mi Calm Calm - N/A   Clear
8:53 AM 66.9 °F - 55.9 °F 68% 29.95 in 10.0 mi Calm Calm - N/A   Clear
9:53 AM 71.1 °F - 55.9 °F 59% 29.95 in 10.0 mi Calm Calm - N/A   Clear
10:53 AM 73.9 °F - 55.9 °F 53% 29.95 in 10.0 mi Calm Calm - N/A   Clear
11:53 AM 75.9 °F - 57.0 °F 52% 29.93 in 10.0 mi SSW 5.8 mph - N/A   Clear
12:53 PM 78.1 °F - 55.0 °F 45% 29.91 in 10.0 mi SW 5.8 mph - N/A   Clear
1:53 PM 82.0 °F 81.6 °F 55.9 °F 41% 29.89 in 10.0 mi Variable 4.6 mph - N/A   Clear
2:53 PM 84.0 °F 83.0 °F 55.9 °F 38% 29.88 in 10.0 mi Variable 5.8 mph - N/A   Clear
3:53 PM 82.0 °F 81.3 °F 54.0 °F 38% 29.86 in 10.0 mi SSW 6.9 mph - N/A   Clear
4:53 PM 82.0 °F 81.2 °F 53.1 °F 37% 29.84 in 10.0 mi Variable 4.6 mph - N/A   Clear
5:53 PM 79.0 °F - 54.0 °F 42% 29.83 in 10.0 mi SSW 9.2 mph - N/A   Clear
6:53 PM 75.0 °F - 55.0 °F 50% 29.84 in 10.0 mi South 6.9 mph - N/A   Clear
7:53 PM 71.1 °F - 55.0 °F 57% 29.85 in 10.0 mi SSE 5.8 mph - N/A   Clear
8:53 PM 68.0 °F - 55.0 °F 63% 29.87 in 10.0 mi SE 4.6 mph - N/A   Clear
9:53 PM 68.0 °F - 55.0 °F 63% 29.89 in 10.0 mi SE 4.6 mph - N/A   Clear
10:53 PM 66.9 °F - 55.9 °F 68% 29.89 in 10.0 mi SE 4.6 mph - N/A   Clear
11:53 PM 64.9 °F - 57.0 °F 75% 29.89 in 10.0 mi ESE 4.6 mph - N/A   Clear